Weather History for Fort Leonard Wood, MO

Change the Weather History Date:

Wednesday, August 14, 2013

  Actual Average Record
Temperature  
Mean Temperature 66 °F -  
Max Temperature 73 °F 83 °F 100 °F (2007)
Min Temperature 58 °F 66 °F 55 °F (2004)
Growing Degree Days 16 (Base 50)    
Moisture  
Dew Point 56 °F    
Average Humidity 72    
Maximum Humidity 94    
Minimum Humidity 51    
Precipitation  
Precipitation 0.00 in - - ()
Sea Level Pressure  
Sea Level Pressure 30.15 in    
Wind  
Wind Speed 6 mph (ENE)    
Max Wind Speed 9 mph    
Max Gust Speed -    
Visibility 10 miles    
Events      
Averages and records for this station are not official NWS values.
T = Trace of Precipitation, MM = Missing Value Source: NWS Daily Summary

Daily Weather History Graph

Daily Weather History Graph

Search for Another Location

Airport:

Trip Planner

Search our weather history database for the weather conditions in past years. The results will help you decide how hot, cold, wet, or windy it might be!

Date:

Astronomy

Aug. 14, 2013 Rise Set
Actual Time 6:23 AM CDT 8:02 PM CDT
Civil Twilight 5:55 AM CDT 8:30 PM CDT
Nautical Twilight 5:21 AM CDT 9:03 PM CDT
Astronomical Twilight 4:45 AM CDT 9:39 PM CDT
Moon 2:13 PM CDT (8/14) No Moon Set
Length of Visible Light 14h 34m
Length of Day
13h 38m
First Quarter, 53% of the Moon is Illuminated
Aug 14
First Quarter
Aug 20
Full
Aug 28
Last Quarter
Sep 5
New
Sep 12
First Quarter

Hourly Weather History & Observations

Time (CDT) Temp. Dew Point Humidity Pressure Visibility Wind Dir Wind Speed Gust Speed Precip Events Conditions
12:58 AM 64.2 °F 62.4 °F 94% 30.12 in 10.0 mi ENE 4.6 mph - N/A   Clear
1:58 AM 63.5 °F 61.7 °F 94% 30.12 in 10.0 mi NE 5.8 mph - N/A   Clear
2:58 AM 62.6 °F 61.0 °F 94% 30.12 in 10.0 mi ENE 6.9 mph - N/A   Clear
3:58 AM 61.2 °F 59.2 °F 93% 30.13 in 10.0 mi ENE 5.8 mph - N/A   Clear
4:58 AM 60.1 °F 57.2 °F 90% 30.14 in 10.0 mi NE 5.8 mph - N/A   Clear
5:58 AM 59.0 °F 55.8 °F 89% 30.16 in 10.0 mi ENE 5.8 mph - N/A   Clear
6:58 AM 58.1 °F 55.8 °F 92% 30.18 in 10.0 mi ENE 5.8 mph - N/A   Clear
7:58 AM 60.6 °F 54.9 °F 81% 30.18 in 10.0 mi East 5.8 mph - N/A   Clear
8:58 AM 63.1 °F 54.1 °F 72% 30.18 in 10.0 mi East 9.2 mph - N/A   Clear
9:58 AM 66.2 °F 54.1 °F 65% 30.19 in 10.0 mi ESE 8.1 mph - N/A   Clear
10:58 AM 69.1 °F 53.6 °F 58% 30.20 in 10.0 mi Variable 5.8 mph - N/A   Clear
11:58 AM 69.6 °F 52.7 °F 55% 30.20 in 10.0 mi NE 8.1 mph - N/A   Clear
12:58 PM 71.1 °F 53.4 °F 54% 30.18 in 10.0 mi NE 8.1 mph - N/A   Partly Cloudy
1:58 PM 71.8 °F 52.9 °F 51% 30.17 in 10.0 mi Variable 3.5 mph - N/A   Clear
2:58 PM 72.1 °F 53.8 °F 52% 30.16 in 10.0 mi Variable 5.8 mph - N/A   Clear
3:58 PM 72.9 °F 55.0 °F 53% 30.14 in 10.0 mi NNE 6.9 mph - N/A   Scattered Clouds
4:58 PM 73.2 °F 54.9 °F 52% 30.13 in 10.0 mi East 6.9 mph - N/A   Clear
5:58 PM 71.6 °F 54.1 °F 54% 30.13 in 10.0 mi ENE 5.8 mph - N/A   Clear
6:58 PM 69.6 °F 54.7 °F 59% 30.12 in 10.0 mi NE 4.6 mph - N/A   Clear
7:58 PM 66.7 °F 54.7 °F 65% 30.12 in 10.0 mi NE 4.6 mph - N/A   Clear
8:58 PM 64.2 °F 55.2 °F 73% 30.12 in 10.0 mi ENE 3.5 mph - N/A   Clear
9:58 PM 62.6 °F 56.1 °F 79% 30.16 in 10.0 mi East 3.5 mph - N/A   Clear
10:58 PM 61.5 °F 55.8 °F 81% 30.16 in 10.0 mi ESE 4.6 mph - N/A   Clear
11:58 PM 59.7 °F 56.5 °F 89% 30.17 in 10.0 mi ESE 4.6 mph - N/A   Mostly Cloudy